Weather History for Nuiqsut, AK

Change the Weather History Date:

Monday, February 18, 2013

  Actual Average (PAKU) Record (PAKU)
Temperature  
Mean Temperature -43 °F -  
Max Temperature -41 °F -13 °F 32 °F (2006)
Min Temperature -45 °F -20 °F -56 °F (1987)
Degree Days  
Heating Degree Days 108    
Moisture  
Dew Point -    
Average Humidity    
Maximum Humidity    
Minimum Humidity    
Precipitation  
Precipitation 0.00 in - - ()
Sea Level Pressure  
Sea Level Pressure 30.71 in    
Wind  
Wind Speed 8 mph (SSW)    
Max Wind Speed 12 mph    
Max Gust Speed 148 mph    
Visibility 8 miles    
Events      
Averages and records for this station are not official NWS values.
T = Trace of Precipitation, MM = Missing Value Source: NWS Daily Summary

Daily Weather History Graph

Daily Weather History Graph

Search for Another Location

Airport:

Trip Planner

Search our weather history database for the weather conditions in past years. The results will help you decide how hot, cold, wet, or windy it might be!

Date:

Astronomy

Feb. 18, 2013 Rise Set
Actual Time 9:21 AM AKST 5:15 PM AKST
Civil Twilight 8:14 AM AKST 6:22 PM AKST
Nautical Twilight 7:02 AM AKST 7:34 PM AKST
Astronomical Twilight 5:51 AM AKST 8:47 PM AKST
Moon No Moon Rise No Moon Set
Length of Visible Light 10h 08m
Length of Day
7h 53m
First Quarter, 60% of the Moon is Illuminated
Feb 18
First Quarter
Feb 25
Full
Mar 4
Last Quarter
Mar 11
New
Mar 19
First Quarter

Hourly Weather History & Observations

Time (AKST) Temp. Windchill Dew Point Humidity Pressure Visibility Wind Dir Wind Speed Gust Speed Precip Events Conditions
12:53 AM -42.0 °F -65.3 °F - N/A% 30.68 in 10.0 mi SSW 8.1 mph - N/A   Unknown
1:53 AM -42.0 °F -69.7 °F - N/A% 30.69 in 10.0 mi South 11.5 mph - N/A   Clear
3:53 AM -42.0 °F -68.4 °F - N/A% 30.71 in 10.0 mi SSW 10.4 mph - N/A   Clear
4:53 AM -43.1 °F -69.7 °F - N/A% 30.71 in 10.0 mi SSW 10.4 mph - N/A   Clear
5:53 AM -43.1 °F -69.7 °F - N/A% 30.71 in 10.0 mi SSW 10.4 mph 148.5 mph N/A   Clear
6:53 AM -44.0 °F -69.4 °F - N/A% 30.71 in 10.0 mi SSW 9.2 mph - N/A   Clear
7:53 AM -44.0 °F - - N/A% 30.72 in - North - - N/A   Unknown
8:53 AM -44.0 °F -67.7 °F - N/A% 30.73 in 8.0 mi SSW 8.1 mph - N/A   Clear
9:53 AM -44.0 °F -65.9 °F - N/A% 30.73 in 10.0 mi SSW 6.9 mph - N/A   Unknown
10:53 AM -44.0 °F -67.7 °F - N/A% 30.73 in 10.0 mi SSW 8.1 mph - N/A   Clear
11:53 AM -43.1 °F -62.7 °F - N/A% 30.74 in 10.0 mi South 5.8 mph - N/A   Clear
12:53 PM -42.0 °F -63.5 °F - N/A% 30.73 in 10.0 mi South 6.9 mph - N/A   Clear
1:53 PM -42.0 °F -65.3 °F - N/A% 30.74 in 7.0 mi SW 8.1 mph - N/A   Unknown
2:53 PM -42.0 °F -65.3 °F - N/A% 30.73 in 10.0 mi SSW 8.1 mph - N/A   Clear
3:32 PM -41.8 °F -63.3 °F - N/A% 30.72 in 1.8 mi SSW 6.9 mph - N/A   Clear
3:47 PM -41.8 °F -65.1 °F - N/A% 30.72 in 3.0 mi SSW 8.1 mph - N/A   Clear
3:53 PM -42.0 °F -66.9 °F - N/A% 30.73 in 10.0 mi SSW 9.2 mph - N/A   Clear
4:53 PM -43.1 °F -68.3 °F - N/A% 30.71 in 10.0 mi South 9.2 mph - N/A   Clear
5:20 PM -43.6 °F -67.3 °F - N/A% 30.70 in 1.8 mi South 8.1 mph - N/A   Clear
5:30 PM -43.6 °F -67.3 °F - N/A% 30.70 in 5.0 mi South 8.1 mph - N/A   Haze
5:53 PM -44.0 °F -65.9 °F - N/A% 30.71 in 10.0 mi South 6.9 mph - N/A   Clear
6:53 PM -45.0 °F -65.0 °F - N/A% 30.70 in 10.0 mi SSW 5.8 mph - N/A   Clear
7:38 PM -43.6 °F -63.3 °F - N/A% 30.69 in 2.5 mi SW 5.8 mph - N/A   Clear
7:45 PM -43.6 °F -60.8 °F - N/A% 30.68 in 10.0 mi SW 4.6 mph - N/A   Clear
7:53 PM -45.0 °F -62.5 °F - N/A% 30.69 in 3.0 mi SW 4.6 mph - N/A   Clear
8:05 PM -45.4 °F -59.7 °F - N/A% 30.68 in 3.0 mi SW 3.5 mph - N/A   Clear
8:53 PM -44.0 °F -61.2 °F - N/A% 30.69 in 10.0 mi SSW 4.6 mph - N/A   Clear
9:53 PM -45.9 °F -66.1 °F - N/A% 30.68 in 10.0 mi SW 5.8 mph - N/A   Clear
10:53 PM -45.0 °F -59.3 °F - N/A% 30.66 in 10.0 mi SSE 3.5 mph - N/A   Clear
11:53 PM -44.0 °F - - N/A% 30.65 in 10.0 mi Calm Calm - N/A   Clear